Home   Weather   Kortrijk   Past weeks
Flag for Belgium

Past Weather in Kortrijk, West Flanders, Belgium — Yesterday and Last 2 Weeks

Now
52 °F

Mostly cloudy.


Feels Like: 45 °F
Forecast: 47 / 40 °F
Wind: 25 mph from South

Location: Lille Airport

Current Time: Feb 29, 2020 at 12:18:39 pm

Latest Report: Feb 29, 2020 at 11:30 am


Visibility: N/A

Pressure: 29.09 "Hg

Humidity: 72%

Dew Point: 43 °F

Location of KortrijkLocation

Past Weather in Kortrijk — Graph

°F

Kortrijk Temperature Yesterday

Maximum temperature yesterday: 48 °F (at 11:00 pm)
Minimum temperature yesterday: 32 °F (at 3:00 am)
Average temperature yesterday: 39 °F

High & Low Weather Summary for the Past Weeks

 TemperatureHumidityPressure
High61 °F (Feb 16, 2:30 pm)100% (Feb 23, 6:30 am)30.36 "Hg (Feb 23, 6:30 am)
Low32 °F (Feb 28, 3:00 am)54% (Feb 19, 1:00 pm)29.12 "Hg (Feb 29, 11:00 am)
Average46 °F81%29.92 "Hg
* Reported Feb 14 11:00 am — Feb 29 11:00 am, Kortrijk. Weather by CustomWeather, © 2020

Note: Actual official high and low records may vary slightly from our data, if they occured in-between our weather recording intervals... More about our weather records

Kortrijk Weather History for the Previous 24 Hours

Scroll right to see more
 ConditionsComfort  
Time TempWeatherWind HumidityBarometerVisibility
11:00 am
Sat, Feb 29
50 °FLight rain. Partly sunny.26 mph76%29.12 "HgN/A
10:30 am52 °FSunny.25 mph72%29.15 "Hg10 mi
10:00 am50 °FSunny.23 mph76%29.15 "Hg10 mi
9:30 am50 °FSunny.23 mph76%29.18 "Hg10 mi
9:00 am50 °FSunny.24 mph76%29.18 "Hg10 mi
8:30 am48 °FSunny.20 mph82%29.21 "Hg10 mi
8:00 am48 °FPassing clouds.20 mph82%29.24 "HgN/A
7:30 am48 °FPassing clouds.20 mph82%29.27 "HgN/A
7:00 am48 °FPassing clouds.18 mph82%29.30 "HgN/A
6:30 am48 °FPassing clouds.18 mph82%29.33 "HgN/A
6:00 am48 °FPartly cloudy.20 mph82%29.36 "HgN/A
5:30 am48 °FPartly cloudy.20 mph82%29.39 "HgN/A
4:30 am48 °FPassing clouds.22 mph87%29.42 "HgN/A
4:00 am50 °FClear.23 mph82%29.45 "Hg10 mi
3:30 am50 °FMostly cloudy.23 mph82%29.45 "HgN/A
3:00 am50 °FPassing clouds.20 mph82%29.47 "HgN/A
2:30 am50 °FMostly cloudy.24 mph88%29.47 "HgN/A
2:00 am52 °FOvercast.24 mph82%29.50 "HgN/A
1:30 am50 °FOvercast.20 mph88%29.50 "HgN/A
1:00 am50 °FMostly cloudy.20 mph88%29.53 "HgN/A
12:30 am50 °FMostly cloudy.20 mph88%29.53 "HgN/A
12:00 am50 °FLow clouds.17 mph88%29.56 "HgN/A
11:30 pm
Fri, Feb 28
48 °FLow clouds.17 mph100%29.56 "Hg5 mi
11:00 pm48 °FLow clouds.18 mph94%29.59 "Hg4 mi
10:30 pm46 °FFog.21 mph100%29.59 "Hg3 mi
10:00 pm46 °FFog.22 mph100%29.62 "Hg3 mi
9:30 pm46 °FLow clouds.22 mph100%29.62 "Hg4 mi
9:00 pm46 °FLow clouds.21 mph93%29.62 "Hg4 mi
8:30 pm45 °FLow clouds.22 mph100%29.62 "Hg4 mi
8:00 pm45 °FFog.22 mph93%29.65 "Hg3 mi
7:30 pm43 °FDrizzle. Low clouds.23 mph100%29.65 "Hg4 mi
7:00 pm43 °FLow clouds.22 mph93%29.65 "HgN/A
6:30 pm43 °FMostly cloudy.23 mph93%29.68 "Hg5 mi
6:00 pm41 °FRain. Mostly cloudy.20 mph93%29.68 "Hg6 mi
5:30 pm41 °FLight rain. Overcast.21 mph93%29.71 "HgN/A
5:00 pm41 °FLight rain. Overcast.20 mph93%29.74 "Hg5 mi
4:30 pm41 °FLight rain. Mostly cloudy.20 mph87%29.74 "Hg6 mi
4:00 pm41 °FLight rain. Mostly cloudy.23 mph87%29.77 "Hg6 mi
3:30 pm41 °FLight rain. Mostly cloudy.22 mph81%29.80 "HgN/A
3:00 pm41 °FLight rain. Mostly cloudy.21 mph81%29.80 "HgN/A
2:30 pm41 °FLight rain. Mostly cloudy.20 mph81%29.83 "HgN/A
2:00 pm41 °FLight rain. Partly sunny.23 mph81%29.89 "HgN/A
1:30 pm43 °FBroken clouds.24 mph71%29.89 "HgN/A
1:00 pm43 °FSunny.21 mph76%29.92 "Hg10 mi
12:30 pm43 °FBroken clouds.18 mph71%29.95 "HgN/A
12:00 pm41 °FSunny.18 mph76%29.95 "Hg10 mi
Weather by CustomWeather, © 2020

See weather overview

Advertising